Weather History for McCook, NE

Change the Weather History Date:

Thursday, March 14, 2013

  Actual Average Record
Temperature  
Mean Temperature 56 °F 39 °F  
Max Temperature 76 °F 53 °F 88 °F (1935)
Min Temperature 36 °F 24 °F 0 °F (1925)
Degree Days  
Heating Degree Days 8    
Growing Degree Days 7 (Base 50)    
Moisture  
Dew Point 30 °F    
Average Humidity 43    
Maximum Humidity 73    
Minimum Humidity 16    
Precipitation  
Precipitation 0.00 in 0.04 in 0.50 in (1960)
Month to date precipitation 0.05 0.53  
Year to date precipitation 1.22 1.66  
Sea Level Pressure  
Sea Level Pressure 30.12 in    
Wind  
Wind Speed 8 mph (West)    
Max Wind Speed 14 mph    
Max Gust Speed 17 mph    
Visibility 10 miles    
Events      
T = Trace of Precipitation, MM = Missing Value Source: NWS Daily Summary

Daily Weather History Graph

Daily Weather History Graph

Search for Another Location

Airport:

Trip Planner

Search our weather history database for the weather conditions in past years. The results will help you decide how hot, cold, wet, or windy it might be!

Date:

Astronomy

Mar. 14, 2013 Rise Set
Actual Time 7:55 AM CDT 7:48 PM CDT
Civil Twilight 7:27 AM CDT 8:15 PM CDT
Nautical Twilight 6:56 AM CDT 8:47 PM CDT
Astronomical Twilight 6:24 AM CDT 9:19 PM CDT
Moon 9:09 AM CDT (3/14) 11:06 PM CDT (3/14)
Length of Visible Light 12h 47m
Length of Day
11h 53m
Waxing Crescent, 9% of the Moon is Illuminated
Mar 14
Waxing Crescent
Mar 19
First Quarter
Mar 27
Full
Apr 2
Last Quarter
Apr 10
New

Hourly Weather History & Observations

Time (CDT) Temp. Windchill Dew Point Humidity Pressure Visibility Wind Dir Wind Speed Gust Speed Precip Events Conditions
12:53 AM 42.1 °F 37.1 °F 30.0 °F 62% 30.14 in 10.0 mi SW 8.1 mph - N/A   Clear
1:53 AM 41.0 °F 35.8 °F 30.9 °F 67% 30.14 in 10.0 mi WSW 8.1 mph - N/A   Clear
2:53 AM 39.9 °F 34.5 °F 30.0 °F 68% 30.12 in 10.0 mi WSW 8.1 mph - N/A   Clear
3:53 AM 42.1 °F 35.7 °F 30.9 °F 65% 30.11 in 10.0 mi WSW 11.5 mph - N/A   Clear
4:53 AM 41.0 °F 33.9 °F 30.9 °F 67% 30.10 in 10.0 mi WSW 12.7 mph - N/A   Clear
5:53 AM 39.0 °F 31.8 °F 30.0 °F 70% 30.11 in 10.0 mi West 11.5 mph - N/A   Clear
6:53 AM 39.0 °F 32.3 °F 30.9 °F 73% 30.13 in 10.0 mi West 10.4 mph - N/A   Clear
7:53 AM 41.0 °F 33.5 °F 30.9 °F 67% 30.15 in 10.0 mi West 13.8 mph - N/A   Clear
8:53 AM 42.1 °F 34.9 °F 32.0 °F 67% 30.18 in 10.0 mi WNW 13.8 mph - N/A   Clear
9:53 AM 50.0 °F - 35.1 °F 57% 30.20 in 10.0 mi West 8.1 mph - N/A   Clear
10:53 AM 61.0 °F - 33.1 °F 35% 30.20 in 10.0 mi WNW 10.4 mph - N/A   Clear
11:53 AM 66.9 °F - 30.9 °F 26% 30.19 in 10.0 mi NNW 8.1 mph - N/A   Clear
12:53 PM 72.0 °F - 30.9 °F 22% 30.17 in 10.0 mi WNW 8.1 mph - N/A   Clear
1:53 PM 73.0 °F - 28.9 °F 20% 30.16 in 10.0 mi NE 4.6 mph 17.3 mph N/A   Clear
2:53 PM 73.9 °F - 27.0 °F 18% 30.13 in 10.0 mi WNW 9.2 mph - N/A   Clear
3:53 PM 75.0 °F - 28.0 °F 18% 30.10 in 10.0 mi WNW 8.1 mph - N/A   Clear
4:53 PM 75.0 °F - 25.0 °F 16% 30.09 in 10.0 mi Variable 3.5 mph - N/A   Clear
5:53 PM 73.9 °F - 26.1 °F 17% 30.09 in 10.0 mi West 8.1 mph - N/A   Clear
6:53 PM 73.0 °F - 27.0 °F 18% 30.08 in 10.0 mi Calm Calm - N/A   Clear
7:53 PM 68.0 °F - 26.1 °F 21% 30.07 in 10.0 mi Calm Calm - N/A   Clear
8:53 PM 62.1 °F - 28.0 °F 28% 30.07 in 10.0 mi ESE 4.6 mph - N/A   Clear
9:53 PM 57.9 °F - 28.9 °F 33% 30.06 in 10.0 mi South 4.6 mph - N/A   Clear
10:53 PM 55.0 °F - 30.0 °F 38% 30.04 in 10.0 mi SSW 5.8 mph - N/A   Clear
11:53 PM 51.1 °F - 32.0 °F 48% 30.02 in 10.0 mi WSW 8.1 mph - N/A   Clear